Location: Bishop�s Knoyle
(51.0728°N, 2.1714°W)
Time: 17:26:08
(UTC+00:00)

Cosmos 2298 Rocket - Pass Details

Date: 18 September 2020
Orbit: 777 x 783 km, 74.0° (Epoch: 30 October)

Event Time Altitude Azimuth Distance (km) Brightness Sun altitude
Rises 19:57:42 0° 191° (SSW) 3,259 7.1 -16.4°
Reaches altitude 10° 20:00:06 10° 189° (S) 2,335 6.3 -16.8°
Maximum altitude 20:05:19 62° 109° (ESE) 879 4.0 -17.5°
Drops below altitude 10° 20:10:36 10° 30° (NNE) 2,350 6.5 -18.3°
Sets 20:13:00 0° 27° (NNE) 3,282 7.3 -18.6°
